Waarnemingen

Advertentie
Mijn weer
Nancy/Ochey, Frankrijk (7181): temperatuur & dauwpunt: 16.01.2018 17:00:00 - 22.01.2018 17:00:00 (CET)Nancy/Ochey, Frankrijk (7181): temperatuur 5cm: 16.01.2018 17:00:00 - 22.01.2018 17:00:00 (CET)Nancy/Ochey, Frankrijk (7181): temperatuur -20cm & temperatuur -100cm: 16.01.2018 17:00:00 - 22.01.2018 17:00:00 (CET)Nancy/Ochey, Frankrijk (7181): windsnelheid & windstoten: 16.01.2018 17:00:00 - 22.01.2018 17:00:00 (CET)Nancy/Ochey, Frankrijk (7181): windrichting: 16.01.2018 17:00:00 - 22.01.2018 17:00:00 (CET)Nancy/Ochey, Frankrijk (7181): luchtdruk: 16.01.2018 17:00:00 - 22.01.2018 17:00:00 (CET)Nancy/Ochey, Frankrijk (7181): zicht: 16.01.2018 17:00:00 - 22.01.2018 17:00:00 (CET)Nancy/Ochey, Frankrijk (7181): neerslag: 16.01.2018 17:00:00 - 22.01.2018 17:00:00 (CET)
Datum & Tijd tt [°C] td [°C] tt 5cm [°C] tt -20cm [°C] tt -100cm [°C] ff [km/u] ff [kn] fx [km/u] fx [kn] dd ppp [hPa] vv [km] rr [mm]
22.01.2018 17:00:00 8,8 8,2 8,4 5,7 6,8 7 4 32 17 WNW 1013,1 60 0,2
22.01.2018 16:00:00 8,9 8,4 8,6 5,6 6,8 24 13 54 29 NNW 1011,0 6 0,8
22.01.2018 15:00:00 11,0 9,3 9,9 5,6 6,8 26 14 46 25 W 1007,9 60 0,2
22.01.2018 14:00:00 10,6 9,7 10,0 5,5 6,8 26 14 56 30 WZW 1007,6 6 4,1
22.01.2018 13:00:00 10,6 10,3 10,5 5,5 6,8 19 11 29 15 ZZW 1008,1 3,2 1,2
22.01.2018 12:00:00 10,3 9,8 10,0 5,4 6,8 18 10 27 14 ZZW 1009,7 2,0 0,8
22.01.2018 11:00:00 10,3 9,7 9,8 5,4 6,8 11 6 21 11 ZW 1010,3 60 0,0
22.01.2018 10:00:00 10,1 9,5 9,5 5,4 6,8 10 6 32 18 ZW 1010,8 60 0,4
22.01.2018 09:00:00 10,0 9,7 9,4 5,4 6,8 14 8 25 13 WZW 1011,0 10 0,6
22.01.2018 08:00:00 10,0 9,4 9,4 5,3 6,8 20 11 40 22 WZW 1010,9 12 0,0
22.01.2018 07:00:00 9,9 9,4 9,2 5,3 6,8 26 14 40 21 WZW 1010,8 5 0,0
22.01.2018 06:00:00 9,6 9,3 9,0 5,3 6,9 21 11 39 21 WZW 1011,0 7 0,2
22.01.2018 05:00:00 9,4 9,1 8,7 5,3 6,9 22 12 36 19 WZW 1010,7 4,1 0,0
22.01.2018 04:00:00 9,1 9,0 6,9 5,4 6,9 20 11 32 17 WZW 1010,5 4,2 0,2
22.01.2018 03:00:00 7,2 7,1 5,7 5,3 6,9 24 13 39 21 ZW 1010,7 4,1 0,4
22.01.2018 02:00:00 5,9 5,8 4,7 5,4 6,9 29 16 38 20 ZZW 1010,8 10 1,5
22.01.2018 01:00:00 4,9 4,6 3,7 5,3 6,9 24 13 35 19 ZZW 1011,6 9 2,2
22.01.2018 00:00:00 3,9 3,5 2,2 5,4 6,9 24 13 35 19 ZZW 1012,4 12 1,0
21.01.2018 23:00:00 2,3 2,0 1,7 5,4 6,9 12 7 29 16 ZZO 1013,9 8 0,8
21.01.2018 22:00:00 1,9 1,5 1,5 5,3 6,9 16 9 28 15 ZZO 1015,2 6 0,6
21.01.2018 21:00:00 1,8 1,4 1,5 5,3 6,9 14 8 26 14 ZZO 1016,4 7 0,4
21.01.2018 20:00:00 1,8 1,2 1,3 5,3 6,9 14 7 22 12 ZO 1017,4 13 0,0
21.01.2018 19:00:00 1,7 1,0 1,3 5,3 6,9 12 7 18 10 ZZO 1018,3 13 0,6
21.01.2018 18:00:00 2,4 1,2 1,8 5,3 6,9 11 6 21 11 ZZW 1019,0 13 0,4
21.01.2018 17:00:00 3,2 1,1 2,3 5,3 6,9 17 9 23 13 ZZW 1019,0 12 0,2
21.01.2018 16:00:00 4,2 0,7 4,4 5,3 6,9 10 5 16 9 ZZW 1018,8 49 0,0
21.01.2018 15:00:00 4,3 0,3 5,4 5,3 6,9 8 4 17 9 ZW 1018,5 59 0,0
21.01.2018 14:00:00 4,0 -0,8 5,7 5,3 6,9 7 4 19 10 ZW 1018,8 58 0,0
21.01.2018 13:00:00 3,8 0,1 5,6 5,3 6,9 5 3 11 6 ZW 1019,3 45 0,0
21.01.2018 12:00:00 3,5 0,4 4,3 5,2 6,9 7 4 14 7 ZW 1019,4 42 0,0
21.01.2018 11:00:00 3,1 0,8 2,8 5,3 6,9 7 4 11 6 ZZW 1018,9 33 0,0
21.01.2018 10:00:00 2,4 0,6 1,3 5,3 6,9 4 2 9 5 W 1018,6 38 0,0
21.01.2018 09:00:00 1,8 0,2 0,7 5,3 6,9 3 2 21 12 NNW 1017,6 48 0,0
21.01.2018 08:00:00 2,3 0,5 1,2 5,3 6,9 14 7 23 12 NW 1016,3 47 0,0
21.01.2018 07:00:00 2,2 0,6 1,0 5,3 6,9 13 7 24 13 NNW 1015,1 55 0,0
21.01.2018 06:00:00 2,6 1,1 1,5 5,2 6,9 14 7 27 15 NW 1013,8 56 0,0
21.01.2018 05:00:00 3,3 2,1 2,8 5,2 6,9 18 10 33 18 NW 1012,2 48 0,0
21.01.2018 04:00:00 4,1 2,9 3,7 5,2 6,9 16 9 31 17 NW 1010,5 34 0,0
21.01.2018 03:00:00 4,4 3,4 3,9 5,2 6,9 15 8 26 14 WNW 1008,9 30 0,0
21.01.2018 02:00:00 4,5 3,5 4,0 5,2 6,9 13 7 29 15 WNW 1007,3 41 0,0
21.01.2018 01:00:00 4,7 3,7 4,2 5,2 6,9 15 8 27 14 W 1005,5 60 0,0
21.01.2018 00:00:00 5,1 3,9 4,5 5,2 6,9 16 9 34 18 WNW 1004,0 60 0,0
20.01.2018 23:00:00 5,8 5,1 5,4 5,2 6,9 17 9 34 18 WNW 1002,3 60 0,0
20.01.2018 22:00:00 6,3 5,7 5,8 5,2 6,9 13 7 28 15 WNW 1001,0 4,6 0,2
20.01.2018 21:00:00 6,4 5,5 5,6 5,2 6,9 15 8 35 19 W 1000,5 60 0,2
20.01.2018 20:00:00 6,8 5,9 6,1 5,1 6,9 24 13 44 24 W 1000,1 8 0,0
20.01.2018 19:00:00 7,6 6,2 4,8 5,2 6,9 24 13 47 25 W 999,3 18 0,0
20.01.2018 18:00:00 5,1 4,8 3,3 5,2 6,9 24 13 52 28 ZW 999,0 7 0,0
20.01.2018 17:00:00 3,6 3,0 2,9 5,2 6,9 35 19 51 28 ZZW 998,7 6 0,2
20.01.2018 16:00:00 3,2 2,3 2,9 5,2 6,9 36 19 61 33 ZZW 999,1 9 0,0
20.01.2018 15:00:00 3,3 2,1 2,8 5,2 6,9 38 20 55 30 Z 1000,3 13 0,2
20.01.2018 14:00:00 3,1 1,9 2,7 5,2 6,9 32 18 50 27 Z 1002,3 47 0,2
20.01.2018 13:00:00 3,1 1,9 2,9 5,2 6,9 29 16 49 27 Z 1004,5 37 0,4
20.01.2018 12:00:00 3,1 2,1 2,7 5,3 6,9 31 17 44 24 Z 1006,7 17 0,4
20.01.2018 11:00:00 2,9 1,9 2,3 5,3 6,9 28 15 44 24 Z 1008,5 19 0,4
20.01.2018 10:00:00 2,4 1,5 1,9 5,3 6,9 25 13 39 21 Z 1010,4 15 0,2
20.01.2018 09:00:00 2,4 1,5 1,9 5,3 6,9 25 14 37 20 ZZW 1011,4 19 0,0
20.01.2018 08:00:00 2,5 1,8 1,9 5,3 6,9 26 14 39 21 ZZW 1012,3 20 0,2
20.01.2018 07:00:00 2,5 1,6 1,9 5,4 6,9 24 13 32 17 ZZW 1012,9 20 0,0
20.01.2018 06:00:00 2,5 1,6 1,8 5,4 6,9 18 10 29 15 ZW 1013,6 42 0,0
20.01.2018 05:00:00 2,4 1,5 1,5 5,4 6,9 19 10 34 18 ZW 1014,2 46 0,0
20.01.2018 04:00:00 2,3 1,3 1,5 5,4 6,9 24 13 37 20 ZW 1014,9 14 0,0
20.01.2018 03:00:00 2,1 1,2 1,4 5,4 6,9 20 11 31 17 ZW 1015,3 28 0,2
20.01.2018 02:00:00 2,0 1,1 0,6 5,4 6,9 21 12 29 16 ZZW 1015,4 49 0,0
20.01.2018 01:00:00 1,7 0,7 0,7 5,4 6,9 18 10 35 19 ZZW 1016,0 53 0,0
20.01.2018 00:00:00 1,5 0,8 0,1 5,5 6,9 24 13 33 18 ZZW 1016,4 58 0,0
19.01.2018 23:00:00 1,7 0,8 1,0 5,5 6,9 23 13 32 18 ZZW 1015,9 54 0,0
19.01.2018 22:00:00 2,1 1,1 0,7 5,5 6,9 15 8 29 16 WZW 1015,9 35 0,0
19.01.2018 21:00:00 2,2 1,2 0,5 5,5 6,9 16 8 24 13 WZW 1015,5 50 0,0
19.01.2018 20:00:00 2,2 1,2 1,0 5,5 6,9 17 9 24 13 WZW 1014,9 57 0,0
19.01.2018 19:00:00 2,6 1,6 1,9 5,5 6,9 17 9 31 17 WZW 1014,4 60 0,0
19.01.2018 18:00:00 3,1 1,9 2,4 5,5 6,9 16 9 29 16 WZW 1013,6 60 0,0
19.01.2018 17:00:00 3,1 2,2 2,7 5,5 6,9 17 9 29 16 ZW 1013,3 60 0,0
19.01.2018 16:00:00 2,8 1,9 2,6 5,5 6,9 16 9 35 19 ZW 1013,4 42 0,4
19.01.2018 15:00:00 3,7 2,4 3,3 5,5 6,9 22 12 39 21 WZW 1013,1 20 0,2
19.01.2018 14:00:00 4,6 3,4 4,5 5,5 6,9 17 9 24 13 ZW 1013,1 20 0,0
19.01.2018 13:00:00 3,5 2,9 3,4 5,5 6,9 12 6 25 14 ZZW 1013,8 38 0,2
19.01.2018 12:00:00 3,3 2,3 2,4 5,5 6,9 16 9 34 18 ZW 1014,4 51 0,4
19.01.2018 11:00:00 4,2 2,5 3,3 5,5 6,9 13 7 30 16 WZW 1014,4 10 0,0
19.01.2018 10:00:00 3,6 2,3 2,4 5,5 6,9 13 7 33 18 WZW 1014,3 10 0,0
19.01.2018 09:00:00 2,8 1,9 1,3 5,5 6,9 11 6 39 21 ZW 1013,8 10 0,4
19.01.2018 08:00:00 2,3 1,1 0,7 5,5 6,9 26 14 42 23 WZW 1013,3 10 0,0
19.01.2018 07:00:00 2,4 1,1 0,8 5,6 6,9 18 10 33 18 WZW 1012,7 10 0,0
19.01.2018 06:00:00 2,8 0,7 1,2 5,5 6,9 21 11 39 21 WZW 1011,9 10 0,0
19.01.2018 05:00:00 3,3 1,7 1,6 5,5 6,9 16 9 42 23 W 1011,4 10 0,0
19.01.2018 04:00:00 3,6 2,0 1,9 5,5 6,9 18 10 45 24 W 1010,7 10 0,2
19.01.2018 03:00:00 4,5 2,8 3,6 5,5 6,9 22 12 46 25 W 1009,9 10 0,0
19.01.2018 02:00:00 4,7 2,9 3,6 5,5 6,9 28 15 60 32 W 1009,1 10 2,0
19.01.2018 01:00:00 5,4 4,2 4,5 5,5 6,9 29 16 56 30 W 1008,1 6 1,0
19.01.2018 00:00:00 6,1 4,9 5,1 5,4 6,9 22 12 49 26 W 1007,6 10 1,8
18.01.2018 23:00:00 6,7 4,5 4,7 5,4 7,0 26 14 42 23 WZW 1007,0 10 0,0
18.01.2018 22:00:00 6,1 3,6 4,6 5,4 7,0 16 9 39 21 W 1007,0 10 0,0
18.01.2018 21:00:00 6,2 4,0 4,8 5,3 7,0 21 11 43 23 WZW 1006,9 10 0,0
18.01.2018 20:00:00 6,7 4,7 4,6 5,3 7,0 22 12 39 21 WZW 1006,7 10 0,0
18.01.2018 19:00:00 6,2 4,7 4,7 5,3 7,0 21 11 48 26 WZW 1006,7 10 0,6
18.01.2018 18:00:00 6,9 5,8 5,8 5,2 7,0 22 12 44 24 W 1006,9 10 0,8
18.01.2018 17:00:00 6,9 5,5 5,9 5,2 7,0 18 10 38 20 W 1005,9 12 1,4
18.01.2018 16:00:00 7,8 7,0 7,4 5,2 7,1 23 12 56 30 WNW 1006,1 10 4,1
18.01.2018 15:00:00 8,8 7,9 8,1 5,1 7,1 37 20 65 35 ZW 1004,5 10 1,2
18.01.2018 14:00:00 8,6 7,7 8,2 5,1 7,1 46 25 70 38 ZW 1004,8 9 0,4
18.01.2018 13:00:00 8,6 7,7 7,7 5,1 7,1 48 26 67 36 ZW 1005,4 15 0,2
18.01.2018 12:00:00 7,9 7,1 7,0 5,1 7,1 44 24 63 34 ZW 1006,1 7 0,4
18.01.2018 11:00:00 7,5 6,6 6,1 5,1 7,1 41 22 61 33 ZW 1006,7 10 0,4
18.01.2018 10:00:00 6,6 5,9 5,4 5,1 7,1 43 23 65 35 ZW 1006,9 16 0,0
18.01.2018 09:00:00 5,8 5,2 4,1 5,2 7,2 46 25 68 37 ZW 1006,9 10 0,2
18.01.2018 08:00:00 4,5 4,1 1,6 5,2 7,1 50 27 68 37 ZZW 1006,8 6 0,4
18.01.2018 07:00:00 2,0 1,4 0,2 5,2 7,2 48 26 66 36 ZZW 1007,7 6 2,5
18.01.2018 06:00:00 1,5 0,9 0,7 5,2 7,2 34 18 49 26 Z 1009,0 9 2,2
18.01.2018 05:00:00 2,5 1,6 1,9 5,3 7,2 34 18 55 30 Z 1010,0 10 1,4
18.01.2018 04:00:00 3,2 2,2 2,5 5,2 7,2 29 16 47 26 ZZW 1011,9 10 0,4
18.01.2018 03:00:00 3,2 1,9 2,4 5,3 7,2 31 17 42 23 ZZW 1013,1 18 0,4
18.01.2018 02:00:00 3,4 1,4 2,4 5,3 7,2 29 16 43 23 ZZW 1014,6 10 0,0
18.01.2018 01:00:00 3,8 1,3 2,8 5,3 7,2 24 13 43 23 ZZW 1015,3 10 0,0
18.01.2018 00:00:00 3,7 1,4 2,7 5,3 7,2 28 15 48 26 ZW 1015,6 10 0,0
17.01.2018 23:00:00 3,9 1,4 2,5 5,4 7,2 28 15 46 25 WZW 1015,7 50 0,0
17.01.2018 22:00:00 3,5 1,4 1,8 5,4 7,2 21 11 45 24 WZW 1015,5 10 0,4
17.01.2018 21:00:00 3,2 0,8 0,5 5,4 7,2 25 14 42 23 WZW 1015,8 48 0,0
17.01.2018 20:00:00 1,6 0,7 0,1 5,4 7,2 18 10 57 31 ZW 1015,7 10 1,2
17.01.2018 19:00:00 3,1 0,3 1,2 5,4 7,2 31 17 55 30 WZW 1015,6 9 0,2
17.01.2018 18:00:00 3,5 0,5 1,7 5,4 7,1 26 14 54 29 WZW 1014,8 10 0,0
17.01.2018 17:00:00 3,8 0,1 3,0 5,4 7,2 34 18 56 31 WZW 1013,8 10 0,0
17.01.2018 16:00:00 3,9 0,1 3,5 5,4 7,2 34 18 59 32 WZW 1013,1 10 0,0
17.01.2018 15:00:00 4,3 -0,3 3,8 5,5 7,2 31 17 54 29 W 1012,3 10 0,0
17.01.2018 14:00:00 3,9 -0,1 3,7 5,5 7,2 31 17 67 36 WZW 1011,9 10 0,0
17.01.2018 13:00:00 3,5 0,0 3,3 5,5 7,2 26 14 58 31 W 1011,6 10 0,0
17.01.2018 12:00:00 3,0 -0,5 2,4 5,5 7,2 24 13 51 28 W 1011,3 48 0,0
17.01.2018 11:00:00 2,7 -0,8 1,5 5,6 7,2 28 15 65 35 W 1010,5 10 0,0
17.01.2018 10:00:00 2,4 -0,7 0,5 5,6 7,2 26 14 66 36 W 1008,8 10 0,4
17.01.2018 09:00:00 2,1 -0,5 0,3 5,6 7,2 34 18 70 38 W 1007,0 10 0,2
17.01.2018 08:00:00 2,3 -0,1 1,1 5,6 7,2 35 19 56 30 WZW 1005,3 10 0,0
17.01.2018 07:00:00 2,4 -0,4 1,0 5,6 7,2 24 13 57 31 W 1004,8 10 0,2
17.01.2018 06:00:00 2,5 -0,3 1,4 5,7 7,2 34 18 61 33 W 1003,8 10 0,0
17.01.2018 05:00:00 2,5 1,0 1,2 5,7 7,2 29 16 53 28 W 1002,6 10 0,6
17.01.2018 04:00:00 3,2 0,6 2,6 5,7 7,2 34 18 91 49 W 1001,9 10 0,0
17.01.2018 03:00:00 3,8 1,8 2,1 5,7 7,3 31 17 51 28 WZW 1000,9 10 0,2
17.01.2018 02:00:00 3,9 1,4 2,6 5,7 7,3 26 14 54 29 WZW 1000,2 10 0,0
17.01.2018 01:00:00 4,6 2,6 2,9 5,7 7,3 31 17 55 30 WZW 1000,6 10 0,0
17.01.2018 00:00:00 3,5 2,8 3,0 5,7 7,3 18 10 39 21 W 1000,7 5 2,2
16.01.2018 23:00:00 3,8 2,9 3,1 5,7 7,4 8 4 37 20 W 1001,1 10 0,8
16.01.2018 22:00:00 4,0 2,7 3,0 5,6 7,3 22 12 48 26 WZW 1001,9 10 0,0
16.01.2018 21:00:00 4,3 2,5 2,8 5,6 7,4 24 13 44 24 WZW 1001,8 10 0,2
16.01.2018 20:00:00 4,7 2,7 3,6 5,6 7,4 22 12 56 30 WZW 1002,6 10 0,0
16.01.2018 19:00:00 4,8 3,3 3,7 5,6 7,4 21 11 54 29 WZW 1002,3 10 0,2
16.01.2018 18:00:00 5,8 3,5 4,7 5,6 7,4 28 15 49 26 WZW 1002,1 10 0,0
16.01.2018 17:00:00 6,1 3,9 4,9 5,5 7,4 24 13 47 26 WZW 1001,6 20 0,6

tt = temperatuur
td = dauwpunt
tt 5cm = temperatuur 5cm
tt -20cm = temperatuur -20cm
tt -100cm = temperatuur -100cm
ff = windsnelheid
fx = windstoten
dd = windrichting
ppp = luchtdruk
vv = zicht
rr = neerslag

Weerstations in de omgeving